Wind_Speed
32 33 30 27 26 24 22 22 23 23 23 23 23 21 19 19 19 19 18 17 16 14 15 15 14 15 14 14 14 12 14 14 14 15 14 13 13 12 12 12 12 14
30 32 33 29 26 24 22 22 23 23 24 24 23 21 20 19 19 19 18 18 17 14 15 16 14 14 14 15 15 14 15 15 14 14 14 13 13 13 13 12 12 13
26 29 33 32 29 27 23 23 23 23 24 24 22 21 21 19 18 17 18 18 17 16 16 15 14 13 13 14 14 14 14 14 13 12 12 13 12 13 14 12 12 13
25 25 29 31 31 29 26 25 23 22 23 23 21 22 21 19 18 18 18 17 17 17 16 14 14 13 13 13 12 12 12 13 13 12 11 12 11 11 14 13 12 13
26 24 26 28 29 28 26 27 25 22 24 23 23 23 22 20 19 18 17 17 17 17 16 15 13 11 13 14 11 10 11 11 13 12 11 11 11 10 12 13 13 13
26 24 24 26 27 26 26 26 25 24 25 25 25 24 22 20 19 18 17 17 17 16 16 15 12 11 13 13 10 10 10 10 12 12 11 12 11 10 10 12 14 14
25 25 23 24 26 27 26 25 25 27 27 26 25 24 22 20 19 18 16 15 16 16 15 14 12 11 12 12 11 10 10 10 10 11 11 11 11 10 10 12 13 13
23 24 23 24 26 28 27 25 26 28 27 26 25 22 21 19 18 19 16 15 16 15 15 14 11 10 11 12 11 9 10 11 10 11 11 11 11 11 11 11 11 11
22 24 23 24 27 28 27 26 28 27 25 24 22 20 20 18 18 18 16 16 16 14 14 13 11 10 10 11 10 8 10 11 9 10 11 11 13 12 12 12 10 10
22 25 25 24 27 28 28 28 28 25 23 21 19 19 20 19 18 18 16 16 15 13 14 14 12 11 9 10 10 9 10 9 7 9 11 11 12 11 12 13 11 11
21 26 26 26 26 26 29 31 27 25 23 20 20 20 20 19 18 16 16 15 14 14 15 14 12 10 9 9 10 8 8 7 7 9 10 9 8 8 12 13 11 11
24 25 24 25 24 20 26 31 28 26 23 22 22 21 20 20 18 16 15 14 14 16 17 14 11 9 8 10 10 8 8 8 7 8 9 9 8 9 12 12 9 8
29 24 18 22 24 18 24 32 29 26 25 22 21 20 21 21 18 16 15 13 15 19 17 14 12 9 8 11 11 9 8 9 9 8 9 8 8 10 12 10 7 5
29 23 15 20 24 20 23 31 28 26 25 22 20 20 21 21 17 16 16 15 17 19 18 16 13 10 10 12 11 9 9 10 9 8 8 9 9 9 10 9 6 4
23 22 17 19 24 22 24 29 28 26 24 21 20 20 19 18 17 16 17 18 20 20 19 17 15 13 12 11 10 11 10 9 8 6 6 7 8 8 8 7 7 6
20 22 17 16 22 24 22 25 26 24 22 22 21 20 18 17 17 17 19 21 22 21 20 18 16 14 14 12 12 12 11 8 7 6 4 3 5 8 10 9 8 8
21 23 19 17 23 24 22 24 25 23 23 22 20 20 18 17 19 21 22 22 22 20 19 18 16 14 13 13 12 12 11 9 6 6 6 3 2 7 10 11 10 9
24 24 22 21 24 25 24 26 25 23 22 20 19 22 21 19 21 23 23 21 20 19 18 16 15 13 12 12 12 12 12 9 7 5 5 4 5 7 11 12 12 12
27 25 23 22 21 20 23 26 26 24 24 22 23 25 24 23 23 22 21 20 18 17 16 15 13 12 11 11 10 11 12 10 8 6 4 5 9 11 11 12 13 15
25 25 24 23 21 20 22 26 27 26 27 26 26 25 24 23 22 21 21 19 17 16 16 15 13 11 10 10 9 9 9 9 9 10 9 11 14 15 13 11 12 14
22 26 27 26 26 25 25 27 28 27 27 27 27 26 24 23 21 21 21 19 17 16 15 14 13 11 9 9 8 8 8 8 8 10 11 12 13 13 14 14 12 13
22 25 29 28 27 27 27 28 28 28 27 28 29 28 25 23 22 21 20 20 18 15 15 15 13 11 10 9 9 9 9 8 8 8 9 10 11 12 13 15 14 12
25 26 29 29 27 28 27 26 28 28 27 28 29 27 23 22 21 20 19 19 17 15 15 16 14 12 11 10 10 10 10 10 10 11 13 13 13 13 13 14 13 11
30 29 30 30 28 26 25 24 26 27 25 25 27 26 23 22 21 21 20 19 18 17 15 15 15 14 11 10 10 9 10 12 14 16 17 16 14 14 13 13 12 10
33 31 31 30 28 25 23 23 24 25 24 24 25 25 23 22 20 21 21 19 18 18 16 15 15 14 12 10 10 8 8 11 14 18 20 18 15 13 13 12 12 11
33 32 31 30 28 25 23 22 22 24 24 25 25 24 22 21 19 20 21 20 18 17 17 16 16 15 14 12 10 9 8 7 9 14 18 18 15 13 11 11 11 11
Wind_Direction
189 182 180 183 183 182 182 181 180 179 175 172 172 172 172 172 173 172 169 168 168 169 170 169 167 170 172 171 169 167 168 172 176 179 179 174 174 178 181 186 188 186
193 184 179 179 180 180 183 184 182 179 175 173 170 168 168 167 167 168 167 166 168 167 165 166 169 173 174 172 172 169 168 172 174 178 181 178 178 183 183 186 189 187
199 191 182 179 180 179 181 182 181 180 177 173 170 170 172 170 166 165 164 164 166 164 161 164 168 167 167 167 170 168 165 169 173 176 180 180 184 187 184 187 190 187
203 198 187 183 181 178 179 179 177 177 176 171 170 171 172 172 168 164 165 165 163 159 157 159 161 164 171 166 161 163 163 166 170 172 177 180 186 189 184 190 196 190
204 201 191 186 182 178 180 178 175 175 172 168 168 169 166 165 164 164 168 170 166 160 156 159 161 164 169 163 155 160 165 167 171 174 176 176 184 192 189 195 201 193
202 199 195 190 185 183 179 176 177 175 169 165 163 162 160 160 162 164 165 166 164 160 157 158 159 154 153 154 153 156 159 162 169 175 179 178 183 195 193 195 200 197
201 197 194 191 189 186 179 174 175 170 162 161 159 158 160 161 162 163 161 159 158 157 155 153 155 154 150 151 153 151 151 154 158 167 176 176 177 185 187 190 197 197
205 196 192 192 188 183 178 174 168 161 156 156 156 157 160 160 163 165 162 160 157 154 153 150 150 151 147 149 154 155 159 160 160 165 171 173 172 175 181 187 193 192
207 200 195 192 185 180 178 171 161 156 155 155 155 156 159 161 163 164 161 159 158 156 154 150 146 147 148 153 153 152 159 164 170 174 176 180 177 176 180 183 186 184
207 202 197 192 188 182 175 166 156 154 156 156 153 155 160 163 162 161 161 160 161 161 155 147 145 150 153 153 149 147 155 162 170 174 177 180 180 183 186 182 177 179
208 203 199 194 191 182 169 161 155 154 155 154 153 158 164 163 160 162 164 163 166 162 152 143 142 151 153 146 146 151 156 153 148 152 159 160 158 171 180 176 172 178
203 204 205 194 187 179 164 157 154 153 152 153 158 163 164 159 159 162 160 158 160 154 145 139 141 154 159 148 146 153 159 161 156 151 151 145 132 140 158 166 168 173
196 200 204 188 186 184 163 154 152 151 152 155 162 165 159 156 157 158 155 155 154 148 144 144 147 149 146 142 146 148 149 153 154 150 147 142 136 139 146 149 147 151
195 196 190 181 189 188 161 152 151 152 154 157 160 157 153 154 155 154 154 154 149 145 145 147 147 137 126 135 148 145 134 139 141 133 127 126 127 133 135 131 124 123
197 197 188 177 181 172 153 149 149 152 157 157 153 152 151 154 154 150 147 143 138 137 138 140 138 127 119 123 137 138 131 133 138 129 124 130 134 134 133 130 126 115
191 192 185 172 168 161 152 151 149 148 152 151 150 153 154 154 152 145 139 136 132 129 129 130 126 120 116 113 119 130 132 130 128 118 118 159 163 145 139 135 128 114
182 183 177 163 159 158 158 155 147 141 141 144 145 145 146 147 144 138 134 131 129 126 123 123 122 119 118 115 112 122 131 133 124 108 105 107 141 149 148 140 130 121
166 168 165 159 155 156 157 150 142 136 137 138 135 134 138 141 136 131 128 126 125 124 120 119 121 120 122 123 120 119 120 121 124 126 123 94 83 130 154 148 133 123
148 150 153 155 152 150 147 140 135 133 133 134 131 131 133 133 129 126 124 122 122 121 118 118 121 123 128 134 135 126 115 106 103 110 130 106 91 106 133 144 136 127
132 136 138 142 141 137 132 129 127 126 126 130 131 129 127 125 124 123 119 117 119 119 118 116 112 114 125 138 149 144 126 109 91 85 99 106 99 97 105 120 133 138
108 121 123 125 129 130 125 122 123 123 124 126 125 123 122 121 119 117 114 113 115 119 119 110 101 101 110 122 136 143 138 126 101 85 89 97 96 95 96 105 122 140
76 99 109 111 115 118 116 116 120 122 123 124 121 117 118 117 113 111 109 108 109 113 113 104 94 93 98 102 110 121 128 126 110 93 88 90 94 96 99 105 114 123
59 75 92 100 102 103 103 107 114 117 118 121 120 116 115 114 111 107 106 104 102 102 101 97 90 85 90 99 103 108 113 110 101 96 94 93 94 98 105 109 107 104
55 61 76 86 91 92 95 99 106 110 112 113 115 114 111 112 111 107 103 99 96 92 89 89 86 80 81 95 100 101 101 97 94 95 94 89 88 92 99 104 101 95
57 57 64 73 78 83 90 96 100 106 110 109 109 109 108 109 109 106 99 92 87 84 79 78 79 75 73 84 92 94 95 93 93 93 89 84 84 88 91 93 89 81
59 59 60 66 71 76 84 90 95 101 105 104 103 104 104 102 100 97 92 85 78 76 74 71 72 70 68 70 76 77 79 85 88 85 83 84 85 85 87 86 78 67
Height
779 778 781 785 790 793 795 797 799 801 802 804 807 809 811 814 816 818 820 822 824 826 827 828 829 830 831 832 834 835 836 837 838 839 840 841 843 843 844 845 846 847
783 780 779 782 787 791 794 797 799 800 801 803 806 808 810 813 815 817 819 821 823 825 826 827 828 829 830 831 833 834 835 836 837 838 840 841 842 843 843 844 845 846
786 784 781 780 784 788 792 795 798 800 801 803 805 807 810 812 814 816 819 820 822 824 825 827 828 829 830 831 832 833 834 835 836 838 839 840 841 842 843 844 844 845
786 787 784 782 783 786 790 793 797 799 801 802 804 807 809 812 814 816 818 820 821 823 824 826 827 828 829 830 831 832 833 834 835 837 838 839 840 841 842 843 844 845
785 786 786 786 786 787 789 791 795 798 800 802 803 806 809 811 814 816 817 819 820 822 824 825 826 827 828 829 830 831 832 833 834 835 837 838 839 840 841 842 843 844
784 785 786 787 787 788 790 791 794 796 798 800 802 805 808 811 813 815 817 818 820 821 823 824 826 826 827 828 829 830 830 832 833 834 835 836 838 839 840 841 841 842
784 785 785 786 787 789 790 792 794 795 796 799 801 805 807 810 812 814 816 818 819 821 822 824 825 826 827 828 828 829 830 831 832 833 834 835 836 838 839 840 840 840
784 784 785 786 787 788 790 792 794 794 795 798 801 804 807 809 812 813 815 817 818 820 821 823 824 825 826 827 828 829 829 830 831 832 833 834 835 837 838 838 839 839
782 783 784 785 786 787 789 791 791 792 794 798 801 804 807 809 811 813 815 816 818 819 820 822 823 824 825 826 827 828 829 829 831 832 833 834 834 836 837 837 838 838
780 782 783 785 785 786 788 788 789 791 794 797 800 804 807 809 811 812 814 816 817 818 820 821 823 824 825 826 827 827 828 829 830 831 832 833 834 835 836 837 837 838
782 782 783 784 785 786 786 786 787 791 794 797 801 804 807 809 811 812 813 815 816 818 819 821 822 824 824 825 826 827 828 829 830 831 831 833 834 834 835 836 837 837
781 782 782 783 786 788 786 785 787 790 794 798 801 804 807 809 810 812 813 814 816 817 819 820 822 823 824 824 826 827 828 829 830 830 831 832 833 834 835 836 836 836
776 779 782 785 789 791 788 785 787 791 795 799 802 804 806 808 810 811 813 814 815 816 818 819 821 822 823 824 825 826 827 828 829 830 831 832 833 833 834 835 835 836
775 777 781 786 790 792 790 787 788 793 796 799 802 804 806 808 810 811 811 813 814 815 817 819 820 822 823 824 825 826 827 828 829 831 831 832 833 833 834 835 835 836
776 777 781 786 789 790 790 789 790 794 797 799 801 804 806 808 810 810 810 812 813 815 816 818 820 821 822 824 825 826 827 828 829 831 831 832 833 833 834 834 835 835
776 778 782 786 786 788 791 791 792 794 797 799 801 803 806 808 809 809 810 811 813 814 816 818 819 821 823 824 825 826 827 828 829 830 831 832 833 833 833 834 835 835
775 778 782 785 786 789 793 793 792 794 796 799 801 802 805 807 808 809 810 811 813 814 816 817 819 821 823 824 825 826 827 828 829 830 831 832 833 833 833 834 834 835
775 778 782 785 787 790 792 791 791 793 795 799 801 801 805 808 810 810 810 811 813 814 816 818 819 821 822 824 825 826 827 828 830 831 832 832 833 832 833 834 834 835
775 778 782 785 787 791 792 789 790 793 795 799 802 802 804 808 810 811 811 812 813 815 817 818 820 821 823 824 826 827 828 829 830 831 832 833 833 833 834 834 835 835
776 779 782 784 787 792 792 789 790 793 796 800 801 801 804 808 810 811 812 813 814 815 817 819 820 822 823 824 826 827 828 829 831 832 832 833 833 833 834 835 835 836
779 780 782 785 788 791 792 791 792 794 797 800 799 800 805 809 811 812 812 814 815 816 818 819 821 822 823 825 826 827 828 829 831 832 833 833 833 833 834 835 836 836
783 782 783 785 788 790 791 793 794 796 799 799 798 801 807 810 811 813 814 815 816 817 819 820 822 823 824 825 826 827 828 829 830 832 832 833 833 833 834 835 836 836
787 785 784 787 790 791 793 796 797 799 801 800 799 804 809 811 812 814 815 816 817 819 820 821 822 824 825 826 827 828 828 829 830 831 831 832 833 834 834 835 836 836
792 790 789 789 792 794 797 799 800 801 802 802 802 806 810 812 813 815 816 818 819 820 822 822 823 825 826 826 827 828 829 830 830 831 831 833 834 834 835 835 836 836
797 796 795 794 796 798 800 802 802 803 805 805 805 808 811 813 814 815 817 818 820 821 823 824 825 827 827 827 828 829 830 831 831 831 832 834 834 835 836 836 836 837
802 802 801 801 803 804 805 806 806 806 806 805 806 809 812 814 816 817 818 819 821 823 825 827 828 828 828 829 829 830 830 831 831 833 834 835 835 836 836 837 837 838